Probability
0 0 0 0 0 0 0 0 0 0 0 0 0 0 0 0 0 0 0 0 0 0 0 0 0 0 0 0 0 0 0 0 0 0 0 0 0 0 0 0 0 0 0 0
0 0 0 0 0 0 0 0 0 0 0 0 0 0 0 0 0 0 0 0 0 0 0 0 0 0 0 0 0 0 0 0 0 0 0 0 0 0 0 0 0 0 0 0
0 0 0 0 0 0 0 0 0 0 0 0 0 0 0 0 0 0 0 0 0 0 0 0 0 0 0 0 0 0 0 0 0 0 0 0 0 0 0 0 0 0 0 0
0 0 0 0 0 0 0 0 0 0 0 0 0 0 0 0 0 0 0 0 0 0 0 0 0 0 0 0 0 0 0 0 0 0 0 0 0 0 0 0 0 0 0 0
0 0 0 0 0 0 0 0 0 0 0 0 0 0 0 0 0 0 0 0 0 0 0 0 0 0 0 0 0 0 0 0 0 0 0 0 0 0 0 0 0 0 0 0
0 0 0 0 0 0 0 0 0 0 0 0 0 0 0 0 0 0 0 0 0 0 0 0 0 0 0 0 0 0 0 0 0 0 0 0 0 0 0 0 0 0 0 0
0 0 0 0 0 0 0 0 0 0 0 0 0 0 0 0 0 0 0 0 0 0 0 0 0 0 0 0 0 0 0 0 0 0 0 0 0 0 0 0 0 0 0 0
0 0 0 0 0 0 0 0 0 0 0 0 0 0 0 0 0 0 0 0 0 0 0 0 0 0 0 0 0 0 0 0 0 0 0 0 0 0 0 0 0 0 0 0
0 0 0 0 0 0 0 0 0 0 0 0 0 0 0 0 0 0 0 0 0 0 0 0 0 0 0 0 0 0 0 0 0 0 0 0 0 0 0 0 0 0 0 0
0 0 0 0 0 0 0 0 0 0 0 0 0 0 0 0 0 0 0 0 0 0 0 0 0 0 0 0 0 0 0 0 0 0 0 0 0 0 0 0 0 0 0 0
0 0 0 0 0 0 0 0 0 0 0 0 0 0 0 0 0 0 0 0 0 0 0 0 0 0 0 0 0 0 0 0 0 0 0 0 0 0 0 0 0 0 0 0
0 0 0 0 0 0 0 0 0 0 0 0 0 0 0 0 0 0 0 0 0 0 0 0 0 0 0 0 0 0 0 0 0 0 0 0 0 0 0 0 0 0 0 0
0 0 0 0 0 0 0 0 0 0 0 0 0 0 0 0 0 0 0 0 0 0 0 0 0 0 0 0 0 0 0 0 0 0 0 0 0 0 0 0 0 0 0 0
0 0 0 0 0 0 0 0 0 0 0 0 0 0 0 0 0 0 0 0 0 0 0 0 0 0 0 0 0 0 0 0 0 0 0 0 0 0 0 0 0 0 0 0
0 0 0 0 0 0 0 0 0 0 0 0 0 0 0 0 0 0 0 0 0 0 0 0 0 0 0 0 0 0 0 0 0 0 0 0 0 0 0 0 0 0 0 0
0 0 0 0 0 0 0 0 0 0 0 0 0 0 0 0 0 0 0 0 0 0 0 0 0 0 0 0 0 0 0 0 0 0 0 0 0 0 0 0 0 0 0 0
0 0 0 0 0 0 0 0 0 0 0 0 0 0 0 0 0 0 0 0 0 0 0 0 0 0 0 0 0 0 0 0 0 0 0 0 0 0 0 0 0 0 0 0
0 0 0 0 0 0 0 0 0 0 0 0 0 0 0 0 0 0 0 0 0 0 0 0 0 0 0 0 0 0 0 0 0 0 0 0 0 0 0 0 0 0 0 0
0 0 0 0 0 0 0 0 0 0 0 0 0 0 0 0 0 0 0 0 0 0 0 0 0 0 0 0 0 0 0 0 0 0 0 0 0 0 0 0 0 0 0 0
0 0 0 0 0 0 0 0 0 0 0 0 0 0 0 0 0 0 0 0 0 0 0 0 0 0 0 0 0 0 0 0 0 0 0 0 0 0 0 0 0 0 0 0
0 0 0 0 0 0 0 0 0 0 0 0 0 0 0 0 0 0 0 0 0 0 0 0 0 0 0 0 0 0 0 0 0 0 0 0 0 0 0 0 0 0 0 0
0 0 0 0 0 0 0 0 0 0 0 0 0 0 0 0 0 0 0 0 0 0 0 0 0 0 0 0 0 0 0 0 0 0 0 0 0 0 0 0 0 0 0 0
0 0 0 0 0 0 0 0 0 0 0 0 0 0 0 0 0 0 0 0 0 0 0 0 0 0 0 0 0 0 0 0 0 0 0 0 0 0 0 0 0 0 0 0
0 0 0 0 0 0 0 0 0 0 0 0 0 0 0 0 0 0 0 0 0 0 0 0 0 0 0 0 0 0 0 0 0 0 0 0 0 0 0 0 0 0 0 0
0 0 0 0 0 0 0 0 0 0 0 0 0 0 0 0 0 0 0 0 0 0 0 0 0 0 0 0 0 0 0 0 0 0 0 0 0 0 0 0 0 0 0 0
0 0 0 0 0 0 0 0 0 0 0 0 0 0 0 0 0 0 0 0 0 0 0 0 0 0 0 0 0 0 0 0 0 0 0 0 0 0 0 0 0 0 0 0
Height
5724 5729 5736 5744 5749 5754 5756 5759 5763 5767 5768 5771 5775 5780 5783 5785 5787 5791 5793 5794 5796 5798 5799 5800 5801 5802 5802 5802 5802 5802 5802 5801 5800 5800 5799 5798 5797 5796 5795 5793 5792 5790 5789 5787
5713 5720 5731 5735 5739 5743 5746 5750 5755 5758 5760 5762 5766 5771 5775 5777 5779 5782 5784 5786 5788 5790 5790 5792 5793 5794 5794 5794 5794 5794 5794 5793 5793 5792 5791 5791 5790 5789 5787 5786 5784 5783 5781 5780
5704 5717 5722 5725 5729 5733 5738 5743 5747 5750 5751 5753 5756 5762 5766 5770 5771 5774 5776 5778 5780 5781 5782 5784 5785 5786 5786 5786 5786 5786 5786 5785 5785 5784 5783 5783 5782 5781 5779 5778 5776 5775 5774 5772
5694 5705 5709 5714 5719 5725 5730 5736 5738 5740 5742 5745 5748 5750 5759 5761 5763 5765 5768 5769 5772 5773 5774 5775 5776 5777 5778 5778 5778 5778 5777 5777 5776 5776 5775 5775 5774 5773 5772 5770 5769 5767 5766 5764
5684 5694 5699 5704 5712 5717 5723 5727 5729 5731 5733 5736 5739 5739 5749 5753 5755 5757 5760 5761 5763 5764 5765 5766 5768 5768 5769 5769 5769 5769 5769 5768 5768 5767 5767 5766 5766 5765 5763 5762 5761 5759 5758 5756
5676 5684 5689 5697 5704 5709 5713 5717 5719 5721 5723 5726 5733 5732 5736 5744 5747 5749 5751 5753 5754 5755 5756 5757 5758 5759 5760 5760 5760 5760 5760 5760 5759 5759 5758 5758 5757 5756 5755 5754 5753 5751 5750 5748
5664 5671 5679 5686 5692 5698 5702 5707 5710 5712 5714 5718 5725 5725 5729 5736 5739 5741 5743 5744 5745 5746 5747 5748 5749 5750 5751 5751 5751 5751 5751 5751 5751 5750 5749 5749 5748 5748 5747 5746 5745 5743 5742 5740
5655 5661 5670 5676 5683 5689 5694 5699 5703 5706 5709 5712 5714 5716 5723 5727 5730 5732 5734 5735 5736 5737 5738 5739 5740 5741 5742 5742 5742 5742 5742 5742 5742 5741 5741 5740 5740 5739 5738 5737 5736 5735 5733 5731
5647 5655 5664 5669 5675 5680 5685 5689 5696 5699 5700 5702 5704 5708 5714 5718 5721 5724 5725 5726 5727 5729 5730 5731 5731 5732 5733 5733 5733 5733 5733 5733 5733 5732 5732 5731 5731 5730 5730 5728 5727 5726 5725 5723
5639 5646 5652 5659 5664 5669 5676 5681 5685 5687 5689 5692 5697 5701 5705 5709 5712 5715 5716 5718 5719 5720 5721 5722 5723 5723 5724 5724 5724 5724 5724 5724 5724 5724 5723 5723 5722 5722 5721 5720 5719 5717 5716 5714
5629 5635 5641 5646 5652 5660 5666 5671 5674 5678 5681 5685 5689 5695 5697 5700 5703 5706 5708 5709 5710 5711 5712 5713 5714 5714 5715 5715 5715 5715 5715 5715 5715 5715 5715 5714 5714 5713 5712 5711 5710 5709 5707 5705
5620 5625 5629 5636 5646 5651 5656 5661 5665 5670 5674 5678 5681 5688 5689 5692 5695 5697 5699 5700 5701 5703 5704 5705 5705 5706 5706 5706 5707 5707 5707 5707 5707 5706 5706 5706 5705 5705 5704 5703 5701 5700 5698 5696
5610 5614 5619 5624 5632 5639 5643 5649 5655 5661 5665 5668 5672 5679 5682 5684 5686 5689 5691 5692 5693 5694 5695 5696 5697 5697 5698 5698 5698 5698 5698 5698 5698 5698 5698 5698 5697 5696 5695 5694 5692 5691 5689 5686
5598 5602 5609 5616 5624 5632 5636 5642 5647 5651 5654 5659 5665 5671 5674 5676 5678 5681 5682 5684 5685 5686 5687 5688 5688 5689 5689 5689 5690 5690 5690 5690 5690 5690 5690 5689 5688 5687 5686 5685 5683 5681 5679 5676
5586 5593 5601 5610 5616 5621 5627 5633 5637 5641 5647 5652 5659 5663 5667 5668 5670 5672 5674 5675 5677 5678 5679 5679 5680 5680 5681 5681 5681 5682 5682 5682 5682 5681 5681 5680 5679 5678 5677 5676 5674 5672 5669 5667
5577 5585 5593 5600 5606 5611 5615 5622 5628 5633 5639 5644 5649 5654 5660 5660 5661 5663 5666 5667 5669 5670 5671 5671 5672 5672 5673 5673 5673 5673 5673 5673 5673 5673 5672 5671 5670 5669 5668 5666 5664 5662 5659 5656
5568 5577 5584 5590 5597 5601 5604 5613 5620 5625 5631 5636 5640 5649 5651 5652 5654 5656 5657 5659 5661 5662 5663 5663 5664 5664 5665 5665 5665 5665 5665 5665 5665 5665 5664 5663 5662 5660 5659 5657 5654 5652 5649 5646
5560 5568 5576 5582 5588 5589 5601 5609 5612 5617 5623 5629 5633 5638 5641 5644 5646 5648 5649 5651 5652 5654 5654 5655 5656 5656 5656 5656 5657 5657 5657 5657 5656 5656 5655 5654 5653 5651 5649 5647 5644 5641 5638 5635
5553 5561 5567 5572 5577 5583 5593 5600 5605 5610 5615 5621 5625 5629 5632 5635 5637 5639 5641 5643 5644 5645 5646 5647 5648 5648 5648 5648 5648 5648 5648 5648 5648 5647 5646 5645 5643 5641 5639 5637 5634 5631 5628 5624
5545 5552 5559 5564 5570 5576 5588 5595 5598 5602 5605 5614 5616 5620 5623 5625 5628 5633 5633 5634 5636 5637 5638 5638 5639 5639 5640 5640 5640 5640 5640 5639 5639 5638 5637 5635 5633 5631 5629 5626 5623 5620 5617 5613
5537 5543 5550 5556 5563 5570 5580 5586 5590 5595 5603 5606 5608 5611 5614 5617 5621 5624 5625 5626 5627 5628 5629 5630 5631 5631 5632 5632 5632 5632 5631 5631 5630 5628 5627 5625 5623 5621 5619 5616 5613 5609 5606 5602
5530 5536 5543 5549 5556 5566 5573 5578 5584 5590 5594 5597 5600 5603 5606 5609 5612 5614 5616 5618 5619 5620 5621 5622 5623 5623 5624 5624 5624 5623 5622 5622 5620 5619 5617 5615 5613 5611 5608 5605 5602 5598 5594 5590
5523 5532 5539 5547 5556 5562 5566 5572 5577 5581 5585 5588 5592 5595 5598 5601 5603 5606 5608 5610 5611 5612 5613 5614 5615 5615 5615 5615 5615 5614 5613 5612 5611 5609 5608 5605 5603 5600 5597 5594 5591 5587 5583 5578
5518 5525 5532 5539 5546 5553 5559 5564 5568 5573 5577 5580 5584 5588 5591 5593 5596 5598 5600 5602 5603 5604 5605 5606 5607 5607 5607 5606 5606 5605 5604 5603 5601 5600 5598 5595 5593 5590 5587 5583 5579 5575 5571 5566
5510 5518 5524 5531 5539 5545 5551 5556 5561 5565 5569 5573 5576 5580 5582 5585 5588 5590 5592 5594 5595 5596 5597 5598 5598 5598 5598 5598 5597 5596 5595 5593 5592 5590 5588 5585 5582 5579 5576 5572 5568 5563 5558 5553
5504 5512 5519 5527 5534 5540 5545 5550 5553 5558 5562 5565 5569 5572 5575 5578 5580 5582 5584 5586 5587 5588 5589 5589 5589 5589 5589 5588 5587 5586 5585 5583 5582 5580 5577 5574 5571 5568 5565 5561 5556 5551 5546 5540
Wind_Speed
49 50 50 46 44 43 43 44 43 42 43 44 43 41 39 40 40 39 39 39 38 38 38 38 36 36 36 36 36 36 36 36 36 35 35 35 35 35 35 35 35 35 35 35
51 51 46 44 44 44 44 44 43 43 44 45 45 43 41 41 41 40 40 40 39 39 39 39 37 37 37 37 37 37 37 37 37 36 36 36 36 36 35 35 36 35 35 35
52 46 44 45 46 45 45 44 43 43 44 45 46 44 42 41 41 41 41 41 41 40 40 39 38 38 38 38 38 38 38 38 38 38 37 37 37 37 36 36 36 36 36 36
52 49 47 47 47 46 45 42 42 43 44 45 46 47 41 40 40 41 41 41 40 40 40 40 39 39 39 39 39 39 38 38 38 38 37 37 37 37 37 37 36 36 36 36
53 50 49 48 45 44 43 42 43 43 44 46 45 48 43 39 39 40 40 39 39 39 40 40 39 39 39 39 39 38 38 38 38 38 38 38 37 37 37 37 37 36 36 36
52 50 49 47 45 44 43 43 44 44 45 48 43 45 45 39 38 38 38 38 38 39 39 40 39 39 38 38 38 38 38 38 38 38 38 38 37 37 37 37 37 36 36 37
53 52 50 49 48 46 45 44 44 45 47 47 42 45 46 40 37 37 37 38 38 38 38 38 38 38 37 37 37 37 37 37 37 37 37 37 37 37 37 37 37 37 37 37
53 53 51 50 50 48 46 45 45 45 45 45 44 45 43 39 37 36 36 36 37 37 37 37 37 37 36 36 37 37 36 36 37 37 37 37 37 36 36 37 37 37 37 38
53 51 49 49 48 47 47 47 43 44 45 45 46 45 41 38 35 34 34 35 35 36 36 36 36 36 36 36 36 36 36 36 36 36 37 36 36 36 36 36 37 37 37 37
50 51 49 47 48 49 47 45 45 46 46 46 45 43 42 38 36 34 34 34 34 34 35 35 35 35 35 35 35 35 35 35 35 36 36 35 36 36 36 36 36 37 37 38
49 50 50 50 49 48 47 47 48 47 48 46 44 42 40 38 35 33 33 33 33 33 33 33 34 34 34 34 34 34 34 34 34 34 34 34 34 34 35 36 36 37 38 39
48 50 50 49 46 45 46 47 47 47 46 45 44 43 39 38 35 33 32 32 32 32 32 32 32 32 32 32 32 32 32 33 33 33 33 33 34 34 35 35 37 38 39 40
48 52 51 51 50 48 48 47 48 46 45 45 45 43 38 38 36 33 32 32 32 32 32 31 31 31 31 31 31 31 32 32 32 33 33 33 33 34 35 36 37 38 39 40
48 52 53 52 48 45 47 46 45 46 47 45 43 39 38 37 35 33 32 32 30 30 30 30 30 30 31 31 31 31 31 32 32 33 33 33 34 35 36 37 37 39 40 41
47 49 49 48 47 46 45 44 45 45 44 43 39 38 36 35 35 34 33 31 30 30 30 29 29 30 30 30 31 31 31 32 32 33 33 34 35 36 36 36 38 39 41 42
46 47 47 48 46 46 48 46 45 44 43 42 40 38 35 36 36 35 33 32 30 29 29 29 28 28 29 29 30 30 31 31 32 32 32 33 34 35 36 37 38 40 42 43
46 46 48 47 46 47 49 45 43 42 41 41 40 35 35 36 35 34 33 32 30 29 28 28 27 27 28 29 29 30 30 30 31 31 32 33 34 35 37 38 40 41 42 43
46 45 45 46 46 50 44 41 42 41 39 38 37 36 36 36 35 34 33 32 30 29 28 27 27 27 28 28 29 29 30 30 31 32 33 34 35 36 38 39 41 42 43 44
46 46 46 48 48 46 43 40 39 39 38 36 36 36 36 35 35 33 32 31 30 29 28 27 27 28 28 28 29 29 30 31 31 32 33 34 36 37 39 40 41 42 43 45
48 47 46 47 46 45 40 38 36 37 37 34 34 34 34 34 34 30 30 30 29 28 28 28 27 27 28 28 29 29 30 31 31 32 33 35 36 38 39 40 41 42 44 45
48 47 46 44 44 42 39 37 36 37 32 29 31 32 32 32 30 29 29 29 28 28 28 28 27 27 27 28 28 29 30 30 31 33 34 35 37 38 39 40 41 43 44 46
47 46 45 44 43 41 37 35 34 32 31 30 29 30 30 30 29 29 28 27 27 27 27 27 27 27 28 28 29 29 30 31 33 34 35 36 37 38 40 41 42 43 45 46
45 42 41 41 38 36 34 33 33 33 31 30 29 29 29 29 29 28 28 27 27 27 27 27 27 28 28 29 30 30 31 33 33 34 35 36 37 38 39 40 42 44 45 47
42 42 41 39 38 36 34 32 32 31 30 29 29 29 28 28 28 28 28 27 27 27 27 28 28 29 30 30 30 31 32 33 34 34 35 36 38 39 40 41 43 44 46 47
40 41 40 38 35 35 34 32 31 30 29 29 28 28 28 28 28 28 28 28 27 27 28 28 29 29 30 30 31 32 33 34 34 35 36 38 39 40 41 42 44 45 47 49
40 39 39 37 33 33 33 33 32 31 30 29 29 28 28 28 28 28 28 28 28 28 29 29 30 30 31 32 33 33 33 34 35 37 38 39 40 41 42 43 45 46 48 50
Wind_Direction
234 234 235 237 239 240 240 240 241 243 246 247 247 247 248 251 253 254 256 257 260 262 264 266 268 270 272 274 275 276 277 278 280 281 281 282 282 283 283 284 284 285 286 287
234 235 235 236 237 238 240 241 242 244 246 248 249 248 249 252 254 256 257 258 261 263 265 267 269 270 271 273 274 275 276 277 279 279 280 281 282 282 282 283 283 284 285 286
236 236 236 236 236 238 240 242 243 245 247 250 251 250 250 252 255 257 258 260 262 264 265 267 268 270 271 272 273 274 275 276 277 278 279 279 280 280 280 282 282 283 284 286
234 232 233 235 236 237 240 242 244 246 248 250 253 253 249 252 255 257 259 261 262 264 266 267 269 270 271 272 272 273 274 275 276 277 277 278 278 279 280 281 282 283 284 285
233 232 233 235 236 238 240 241 244 246 249 250 251 256 252 252 255 258 260 262 264 265 266 268 269 270 271 271 272 272 273 274 274 275 276 277 277 277 279 280 281 282 283 285
231 232 233 235 236 237 239 241 243 245 248 250 251 256 257 255 257 259 261 263 265 266 267 269 270 270 271 271 271 272 272 273 273 274 275 276 276 276 277 279 280 282 283 284
230 231 231 231 233 235 236 238 241 245 248 252 254 256 258 259 259 260 262 264 265 266 268 269 269 270 270 270 271 271 271 272 273 274 275 274 275 276 276 277 279 281 282 284
231 232 232 233 234 236 237 239 241 246 251 256 256 256 258 260 260 261 262 264 265 267 268 269 270 270 270 271 271 272 272 272 273 273 274 274 275 275 276 277 278 280 283 284
232 235 235 236 236 236 237 239 243 247 250 254 256 259 259 260 261 262 263 264 266 267 268 269 270 270 271 271 271 271 272 272 272 273 273 274 274 275 276 277 278 281 283 283
233 235 235 234 234 236 237 239 240 242 246 251 255 258 261 262 262 263 264 265 266 267 267 268 269 270 270 271 271 271 272 272 272 273 273 273 274 276 276 278 279 281 282 283
228 232 235 234 233 235 236 236 238 241 245 249 255 258 261 263 264 265 265 265 265 266 267 268 269 269 270 271 271 271 271 271 272 273 273 273 275 276 277 278 279 281 283 285
226 230 234 236 235 235 237 238 240 241 245 249 254 255 259 264 266 266 267 266 266 266 267 268 268 269 270 271 271 270 270 271 271 272 273 274 275 276 277 279 281 282 284 287
222 225 229 233 232 230 233 235 238 240 243 247 249 254 255 260 264 266 267 267 268 268 268 269 269 270 270 270 270 270 271 271 271 272 273 274 275 276 278 280 282 284 286 288
221 225 228 233 237 236 236 237 238 239 242 245 248 253 257 260 263 264 266 267 268 268 268 269 270 270 270 269 270 270 271 271 272 273 274 275 276 278 280 282 284 286 287 289
220 224 226 230 235 237 237 238 239 241 244 247 249 250 254 260 263 264 266 267 267 268 269 269 269 269 269 270 270 271 272 273 273 274 276 277 278 280 281 283 285 286 288 290
219 221 223 226 229 236 238 236 238 240 242 245 246 248 252 257 260 263 265 267 267 268 269 269 269 269 270 270 271 272 273 274 275 276 277 278 280 281 283 284 286 288 290 291
219 220 222 225 227 233 236 236 238 240 242 244 247 248 251 254 257 261 264 265 266 267 268 268 268 269 269 270 271 272 273 274 276 277 279 280 281 282 283 285 287 289 291 292
216 219 222 225 229 234 235 237 240 241 241 243 247 248 250 253 257 260 262 264 265 266 266 267 268 269 269 270 271 272 273 275 276 278 279 281 282 284 285 287 289 290 291 293
215 217 221 225 230 235 234 234 239 243 241 242 246 247 250 253 255 257 260 262 264 265 266 267 267 268 269 270 272 273 275 276 278 279 281 282 283 285 287 288 290 291 292 294
214 217 221 224 229 232 233 236 238 241 241 240 244 246 249 251 254 256 258 261 264 266 266 267 268 269 269 270 272 274 276 278 280 281 282 284 286 287 289 290 291 292 293 295
217 220 223 225 229 231 232 234 236 239 241 242 245 247 248 251 254 255 257 260 263 265 266 267 268 269 270 272 273 275 277 279 281 283 285 286 288 289 290 291 292 293 294 295
222 224 224 226 229 232 233 235 236 240 241 243 244 245 247 249 252 254 257 260 262 264 265 267 268 269 271 272 274 276 278 280 282 284 286 288 289 290 291 292 293 294 295 297
222 225 227 230 233 235 235 235 236 238 241 243 245 246 246 248 251 254 257 260 262 264 265 266 268 270 272 274 276 277 279 282 284 286 287 289 290 291 292 293 294 296 297 298
222 224 226 228 229 233 235 236 236 238 241 244 245 246 247 249 251 254 256 259 262 263 265 267 269 271 273 275 277 279 281 283 284 286 288 290 292 292 293 294 296 296 298 299
222 223 224 226 227 229 231 234 237 237 240 243 245 247 249 251 252 254 256 259 261 263 265 268 270 273 275 276 278 280 282 284 285 287 290 292 293 293 294 296 297 298 299 301
220 222 224 226 228 229 231 234 236 238 239 241 244 248 250 251 252 254 256 259 261 264 266 269 271 274 276 278 280 282 283 285 287 289 291 292 293 294 296 297 298 300 301 302